Location: Powder Track
(41.8531°N, 72.3584°W)
Time: 07:32:22
(UTC+00:00)

Altair - Pass Details

Date: 30 July 2021
Orbit: 1501 x 1682 km, 47.2° (Epoch: 19 September)

Event Time Altitude Azimuth Distance (km) Brightness Sun altitude
Exits shadow 04:46:34 20° 112° (ESE) 3,011 8.8 -29.7°
Drops below altitude 10° 04:51:03 10° 83° (E) 3,690 9.5 -29.7°
Sets 04:54:59 0° 69° (ENE) 4,656 10.3 -29.7°
